Date String (YYYY-MM-DD hh:mm:ss) UTC,Instrument flags,Ambient pressure (hPa),Sample flow (lpm),Bypass flow (lpm),Sample temperature (°C),Ambient temperature (°C),ASC tube jacket temperature (°C),LED temperature (°C),Box temperature (°C),Sample RH (%),Span deviation,Mass concentration (μg/m³),Mass concentration (μg/m³),Mass concentration (μg/m³)
DateTimeUTC,F1_M11,P_M11,Q1_M11,Q2_M11,T1_M11,T2_M11,T3_M11,T4_M11,T5_M11,U1_M11,ZSPAN_M11,X2_M11,X0_M11,X1_M11
2023-05-23 20:00:00,,0830.1,5.00,0.00,29.3,26.7,00.0,37.6,30.9,20.7,0003.7,0018.72,0027.50,0017.76
2023-05-23 20:01:00,,0830.1,5.00,0.00,29.3,27.0,00.0,37.6,30.9,20.4,0003.6,0019.08,0028.01,0018.04
2023-05-23 20:02:00,,0830.1,5.01,0.00,29.3,27.3,00.0,37.6,31.0,20.9,0003.5,0019.37,0028.25,0018.34
2023-05-23 20:03:00,,0830.0,5.00,0.00,29.3,27.5,00.0,37.6,31.0,21.7,0003.6,0019.64,0028.23,0018.59
2023-05-23 20:04:00,,0830.1,4.99,0.00,29.3,27.7,00.0,37.6,31.1,21.4,0003.7,0019.84,0027.98,0018.77
2023-05-23 20:05:00,,0830.1,5.00,0.00,29.4,27.8,00.0,37.6,31.1,21.2,0003.7,0020.07,0028.31,0018.98
2023-05-23 20:06:00,,0830.0,5.00,0.00,29.4,28.0,00.0,37.6,31.1,23.0,0003.7,0020.29,0028.53,0019.19
2023-05-23 20:07:00,,0830.0,5.01,0.00,29.4,28.1,00.0,37.7,31.2,22.7,0003.8,0020.45,0028.40,0019.40
2023-05-23 20:08:00,,0830.0,5.00,0.00,29.5,27.7,00.0,37.7,31.2,22.4,0003.7,0020.65,0028.61,0019.62
2023-05-23 20:09:00,,0830.0,5.00,0.00,29.4,26.3,00.0,37.6,31.0,22.0,0003.7,0020.88,0029.19,0019.81
2023-05-23 20:10:00,,0830.0,5.00,0.00,29.4,25.9,00.0,37.5,30.9,22.0,0003.7,0020.99,0029.14,0019.94
2023-05-23 20:11:00,,0830.0,5.00,0.00,29.3,26.1,00.0,37.5,30.8,22.6,0003.7,0021.03,0028.83,0019.99
2023-05-23 20:12:00,,0830.1,4.99,0.00,29.3,26.4,00.0,37.5,30.8,21.9,0003.7,0021.04,0028.73,0020.04
2023-05-23 20:13:00,,0830.0,5.00,0.00,29.3,26.7,00.0,37.6,30.9,21.7,0003.8,0021.14,0029.06,0020.11
2023-05-23 20:14:00,,0830.1,5.00,0.00,29.3,27.0,00.0,37.6,30.9,21.9,0003.8,0021.29,0029.18,0020.26
2023-05-23 20:15:00,,0830.0,5.01,0.00,29.3,27.2,00.0,37.6,31.0,21.6,0003.8,0021.42,0029.16,0020.39
2023-05-23 20:16:00,,0830.1,5.01,0.00,29.3,27.5,00.0,37.6,31.0,21.2,0003.7,0021.51,0029.93,0020.44
2023-05-23 20:17:00,,0830.0,4.98,0.00,29.4,27.7,00.0,37.6,31.1,21.2,0003.7,0021.55,0030.07,0020.49
2023-05-23 20:18:00,,0830.0,5.00,0.00,29.4,27.8,00.0,37.6,31.1,21.0,0003.6,0021.61,0030.17,0020.54
2023-05-23 20:19:00,,0830.0,5.01,0.00,29.4,28.0,00.0,37.7,31.2,22.0,0003.7,0021.64,0030.16,0020.59
2023-05-23 20:20:00,,0830.0,5.00,0.00,29.4,27.9,00.0,37.7,31.2,21.6,0003.7,0021.62,0029.79,0020.63
2023-05-23 20:21:00,,0830.0,4.99,0.00,29.4,26.5,00.0,37.6,31.0,21.0,0003.7,0021.65,0029.57,0020.63
2023-05-23 20:22:00,,0830.0,5.00,0.00,29.4,25.9,00.0,37.5,30.9,21.4,0003.7,0021.66,0029.61,0020.62
2023-05-23 20:23:00,,0830.0,5.02,0.00,29.3,26.0,00.0,37.5,30.8,21.0,0003.7,0021.72,0029.87,0020.66
2023-05-23 20:24:00,,0830.0,5.00,0.00,29.3,26.3,00.0,37.5,30.8,21.5,0003.6,0021.72,0029.63,0020.67
2023-05-23 20:25:00,,0830.0,5.00,0.00,29.3,26.6,00.0,37.6,30.9,22.1,0003.6,0021.69,0029.64,0020.62
2023-05-23 20:26:00,,0830.0,5.00,0.00,29.3,26.9,00.0,37.6,30.9,21.6,0003.6,0021.71,0029.74,0020.62
2023-05-23 20:27:00,,0830.0,5.00,0.00,29.3,27.2,00.0,37.6,31.0,22.1,0003.6,0021.73,0029.93,0020.64
2023-05-23 20:28:00,,0830.0,5.00,0.00,29.3,27.4,00.0,37.6,31.0,21.4,0003.6,0021.71,0030.14,0020.64
2023-05-23 20:29:00,,0830.0,5.00,0.00,29.3,27.6,00.0,37.6,31.1,21.0,0003.7,0021.71,0030.56,0020.62
2023-05-23 20:30:00,,0830.0,4.99,0.00,29.4,27.8,00.0,37.6,31.1,21.6,0003.7,0021.76,0030.86,0020.62
2023-05-23 20:31:00,,0830.0,5.00,0.00,29.4,27.9,00.0,37.6,31.1,21.1,0003.7,0021.79,0033.17,0020.63
2023-05-23 20:32:00,,0830.0,4.99,0.00,29.4,27.6,00.0,37.6,31.2,21.2,0003.8,0021.81,0033.90,0020.66
2023-05-23 20:33:00,,0830.0,4.98,0.00,29.4,26.2,00.0,37.6,30.9,21.9,0003.8,0021.79,0033.89,0020.68
2023-05-23 20:34:00,,0829.9,5.01,0.00,29.3,25.9,00.0,37.5,30.9,22.6,0003.8,0021.76,0035.04,0020.68
2023-05-23 20:35:00,,0829.9,5.01,0.00,29.3,26.1,00.0,37.5,30.8,21.7,0003.9,0021.81,0036.62,0020.72
2023-05-23 20:36:00,,0829.8,4.99,0.00,29.3,26.4,00.0,37.5,30.8,22.0,0003.9,0021.83,0037.42,0020.74
2023-05-23 20:37:00,,0829.8,5.00,0.00,29.3,26.7,00.0,37.5,30.8,21.7,0003.8,0021.77,0037.75,0020.71
2023-05-23 20:38:00,,0829.9,5.00,0.00,29.3,27.0,00.0,37.5,30.9,21.7,0003.8,0021.69,0037.28,0020.65
2023-05-23 20:39:00,,0829.8,5.00,0.00,29.3,27.2,00.0,37.6,31.0,21.6,0003.8,0021.69,0037.04,0020.65
2023-05-23 20:40:00,,0829.8,5.01,0.00,29.3,27.5,00.0,37.6,31.0,21.6,0003.7,0021.71,0037.01,0020.67
2023-05-23 20:41:00,,0829.8,4.99,0.00,29.3,27.7,00.0,37.6,31.1,22.1,0003.6,0021.66,0036.74,0020.66
2023-05-23 20:42:00,,0829.8,5.00,0.00,29.4,27.8,00.0,37.6,31.1,22.4,0003.6,0021.61,0034.37,0020.64
2023-05-23 20:43:00,,0829.9,5.00,0.00,29.4,28.0,00.0,37.6,31.2,21.6,0003.6,0021.59,0033.77,0020.61
2023-05-23 20:44:00,,0829.9,5.00,0.00,29.4,27.9,00.0,37.6,31.2,21.6,0003.4,0021.60,0033.79,0020.57
2023-05-23 20:45:00,,0829.8,4.99,0.00,29.4,26.6,00.0,37.6,31.0,21.7,0003.4,0021.59,0032.46,0020.55
2023-05-23 20:46:00,,0829.8,5.01,0.00,29.4,25.9,00.0,37.5,30.9,21.7,0003.3,0021.50,0030.96,0020.51
2023-05-23 20:47:00,,0829.8,4.99,0.00,29.3,26.0,00.0,37.5,30.8,21.8,0003.4,0021.52,0031.20,0020.50
2023-05-23 20:48:00,,0829.8,4.99,0.00,29.3,26.3,00.0,37.5,30.8,22.3,0003.4,0021.53,0031.91,0020.50
2023-05-23 20:49:00,,0829.8,5.01,0.00,29.3,26.6,00.0,37.6,30.8,22.4,0003.4,0021.49,0031.41,0020.49
2023-05-23 20:50:00,,0829.8,5.01,0.00,29.3,26.9,00.0,37.6,30.9,21.8,0003.4,0021.50,0031.74,0020.49
2023-05-23 20:51:00,,0829.9,4.99,0.00,29.3,27.1,00.0,37.6,31.0,21.8,0003.4,0021.51,0031.83,0020.49
2023-05-23 20:52:00,,0829.9,5.00,0.00,29.3,27.4,00.0,37.6,31.0,22.0,0003.5,0021.53,0032.01,0020.49
2023-05-23 20:53:00,,0829.8,5.00,0.00,29.3,27.6,00.0,37.6,31.1,21.6,0003.5,0021.54,0032.30,0020.48
2023-05-23 20:54:00,,0829.8,5.00,0.00,29.4,27.8,00.0,37.6,31.1,21.9,0003.5,0021.52,0032.34,0020.46
2023-05-23 20:55:00,,0829.8,4.99,0.00,29.4,28.0,00.0,37.6,31.2,21.9,0003.6,0021.47,0032.19,0020.44
2023-05-23 20:56:00,,0829.8,4.99,0.00,29.4,28.1,00.0,37.7,31.2,21.4,0003.7,0021.42,0032.34,0020.40
2023-05-23 20:57:00,,0829.8,4.99,0.00,29.4,27.0,00.0,37.6,31.1,21.5,0003.7,0021.46,0033.11,0020.36
2023-05-23 20:58:00,,0829.8,5.00,0.00,29.4,25.9,00.0,37.5,31.0,21.9,0003.6,0021.41,0032.39,0020.30
2023-05-23 20:59:00,,0829.8,5.00,0.00,29.4,25.9,00.0,37.5,30.9,22.3,0003.6,0021.41,0031.85,0020.26
